Terug naar catalogus

HYPSO-2

ActiefWetenschapSSO
NORAD 60531·PAYLOAD·🇳🇴 Norway

Gelanceerd Aug 16, 2024 vanaf Vandenberg Space Force Base

Loading…

Volgende Passages (komende 24 uur)

TLE

VersSource: Space-Track

Epoch: Sep 14, 2026, 10:48 UTC

1 60531U 24149BR  26257.45010299  .00000957  00000-0  83453-4 0  9995
2 60531  97.6775 332.4044 0002372  53.1369 307.0071 14.99150949113429

Volg HYPSO-2 in realtime met AllMySat

Download on the App Store